FENGYUN 1C DEB, 30501

Orbit data source: Space-Track

FENGYUN 1C DEB, 30501 is space debris in SSO originally from a launch on Mon, 10 May 1999 UTC launched from the Taiyaun Space Center, China (TSC). Fengyun 1C debris stems from the Chinese weather satellite Fengyun-1C, which was intentionally destroyed by a Chinese anti-satellite missile in 2007. This event dramatically increased the amount of space debris, with thousands of trackable fragments posing hazards to satellites and human spaceflight. The Fengyun 1C debris cloud has become a focal point in discussions about space sustainability and the need for international regulations to prevent the creation of new debris.

Loading next visibility...
Identifier
30501, 1999-025AHP
Orbit
SSO
Country
Flag of CNCN / PRC
Related business
Manufacturer
Unknown
Mission
Spacecraft
Bus & Motor
Unknown
Mass
Unknown
Launch date (UTC)
1999-05-10 (27 years ago)
Launch vehicle
Unknown
Launch site
Taiyaun Space Center, China (TSC)
Object type
Payload
Rocket body
Debris
Shape & HBR
Unknown shape, 0.1 m
Radar Cross Section
Medium (>0.1 m² and <1 m²)

Expand to show TLE details & history
Last TLE update: 23 hours ago

TLE from 23 hours ago
0 FENGYUN 1C DEB
1 30501U 99025AHP 26207.49318184  .00002352  00000-0  98162-3 0  9990
2 30501  99.0916 211.7320 0038519 273.9227 238.5984 14.26826456  1362
Epoch: 2026-07-26T11:50Z
TLE epoch observation values (Epoch: 2026-07-26T11:50:10.910Z)
Latitude
27.51631°
Longitude
-85.24738°
Altitude
820.211 km
Speed
7.438 km/s
True Right ascension
02h 25m 57s
True Declination
27° 22' 37"
Sunlit
Object was in daylight at epoch
Visualization orbit readout
Latitude
Unknown
Longitude
Unknown
Altitude
Unknown
Speed
Unknown
Apparent Right ascension
Unknown
Apparent Declination
Unknown
Sunlit
N/A
Visualization observer readout
Local Sidereal Time
00:28:39
Azimuth
Unknown
Elevation
Unknown
Doppler factor
Unknown
Orbital elements
Apogee altitude
827.174 km
Perigee altitude
771.879 km
Semi-major axis
7,177.664 km
Eccentricity
0.00385
Inclination
99.0916°
RAAN
211.732°
Arg. of periapsis
273.9227°
True anomaly
238.2226°
Mean anomaly
238.5984°
Eccentric anomaly
238.4104°
Mean motion
3.56918 °/min
Orbital period
100.86 mins
BSTAR
0.00098162
Loading maneuver chart data...
Computing Atmospheric mass density...

Documentation

Showing up to 5 results
|